#timestamp,LO_Frequency,Hit,StdDev 
1633384815.6,286047000.5,N
1633384835.5,286047000.1,N
1633384855.3,286047000.6,N
1633384875.1,286046998.2,Y
1633384895.9,286046997.7,P
1633384915.7,286046997.8,N
1633384935.6,286046996.7,N
1633384955.4,286046997.5,N
1633384975.2,286046999.4,N
1633384995.1,286047001.0,N
1633384996.0,286047001.0,N
1633385015.8,286047002.3,N
1633385035.6,286046999.8,N
1633385055.5,286047000.3,N
1633385075.3,286047001.7,N
1633385095.2,286047003.2,N
1633385115.9,286047003.8,N
1633385135.7,286047003.9,N
1633385155.6,286047003.8,N
1633385175.4,286047001.5,N
1633385195.2,286047003.2,N
1633385215.1,286047004.0,N
1633385216.0,286047004.0,N
1633385235.8,286047005.8,N
1633385255.7,286047001.7,N
1633385275.5,286047002.7,N
1633385325.4,286047002.0,E
1633385335.3,286047002.7,N
1633385355.1,286046998.3,P
1633385375.9,286047002.7,N
1633385395.7,286046999.7,N
1633385415.5,286047004.0,N
1633385435.4,286047004.3,N
1633385455.2,286047003.1,N
1633385475.1,286047005.7,N
1633385476.0,286047005.7,N
1633385495.8,286047004.1,N
1633385515.6,286047005.7,N
1633385535.5,286047004.7,N
1633385555.3,286047003.4,N
1633385575.1,286047004.0,N
1633385595.9,286047001.5,N
1633385615.7,286047000.1,N
1633385635.6,286047002.1,N
1633385655.4,286047004.3,N
1633385675.2,286047001.6,N
1633385695.1,286047004.4,N
1633385696.0,286047004.4,N
1633385715.8,286047001.5,N
1633385735.6,286047002.1,N
1633385755.5,286047002.7,N
1633385775.3,286047000.3,N
1633385795.2,286047002.8,N
1633385815.9,286047002.6,N
1633385835.7,286047002.5,N
1633385855.6,286047001.5,N
1633385875.4,286047004.1,N
1633385895.3,286047004.0,N
1633385915.1,286047004.3,N
1633385916.0,286047004.3,N
1633385935.8,286047004.0,N
1633385955.7,286047002.9,N
1633385975.5,286047005.1,Y
1633385995.3,286046999.7,P
1633386015.2,286047000.8,N
1633386035.0,286046998.2,N
1633386035.9,286046998.2,N
1633386055.8,286047000.6,N
1633386075.6,286047000.2,N
1633386095.4,286046999.7,N
1633386115.3,286047002.4,N
1633386135.1,286046999.7,N
1633386155.8,286047002.5,N
1633386175.7,286047001.0,N
1633386195.5,286047000.1,N
1633386215.4,286047000.8,N
1633386235.2,286046999.8,N
1633386255.0,286047002.2,N
1633386255.9,286047002.2,N
1633386275.8,286047004.0,N
1633386295.6,286047003.7,N
1633386315.4,286047003.4,N
1633386335.3,286047003.4,N
1633386355.1,286047004.0,N
1633386375.9,286047001.7,N
1633386395.7,286047003.7,N
1633386415.5,286047005.9,Y
1633386435.4,286047004.3,P
1633386455.2,286047003.6,N
1633386475.1,286047001.6,N
1633386476.0,286047001.6,N
1633386495.8,286047004.4,Y
1633386515.6,286047000.7,P
1633386535.5,286046999.2,N
1633386555.3,286047000.5,N
1633386575.2,286047000.6,N
1633386595.9,286046999.4,N
1633386615.7,286046999.9,N
1633386635.6,286046996.6,Y
1633386655.4,286046997.9,P
1633386675.2,286046997.1,N
1633386695.1,286046996.9,N
1633386696.0,286046996.9,N
1633386715.8,286046997.0,N
1633386735.7,286046999.4,N
1633386755.5,286046998.9,N
1633386775.3,286046996.6,N
1633386795.2,286046999.2,N
1633386815.0,286046998.9,N
1633386815.9,286046998.9,N
1633386835.8,286047000.7,N
1633386855.6,286047000.3,N
1633386875.4,286047002.4,N
1633386895.3,286047002.8,N
1633386915.1,286046999.9,N
1633386935.8,286047002.3,N
1633386955.7,286047002.4,N
1633386975.5,286046999.9,N
1633386995.4,286046998.6,N
1633387015.2,286047002.8,N
1633387035.0,286047002.8,N
1633387035.9,286047002.8,N
1633387055.8,286047000.1,N
1633387075.6,286047000.6,N
1633387095.4,286047002.5,N
1633387115.3,286047000.2,N
1633387135.1,286046999.7,N
1633387155.9,286047002.7,N
1633387175.7,286046999.9,N
1633387195.5,286047000.5,N
1633387215.4,286047001.0,N
1633387235.2,286047000.6,N
1633387255.0,286046999.8,N
1633387255.9,286046999.8,N
1633387275.8,286047001.9,N
1633387295.6,286047002.8,N
1633387315.5,286046998.7,N
1633387335.3,286046997.0,N
1633387355.1,286046999.1,N
1633387375.9,286047000.8,N
1633387395.7,286047000.6,N
1633387415.5,286047002.0,N
1633387435.4,286047002.5,N
1633387455.2,286046999.7,N
1633387475.1,286046999.9,N
1633387476.0,286046999.9,N
1633387495.8,286047001.0,N
1633387515.6,286046999.0,N
1633387535.5,286047001.1,N
1633387555.3,286047001.2,N
1633387575.2,286047000.4,N
1633387595.9,286047002.2,N
1633387615.7,286047002.0,N
1633387635.6,286047001.7,N
1633387655.4,286047000.3,N
1633387675.2,286047002.6,N
1633387695.1,286047000.1,N
1633387696.0,286047000.1,N
1633387715.8,286047002.6,N
1633387735.7,286047005.7,Y
1633387755.5,286046999.7,P
1633387775.3,286047000.0,N
1633387795.2,286047003.8,P
1633387815.0,286047004.4,N
1633387815.9,286047004.4,N
1633387835.8,286047001.7,N
1633387855.6,286047002.8,N
1633387875.4,286047001.2,N
1633387895.3,286047000.9,N
1633387915.1,286046999.3,N
1633387935.9,286046996.6,N
1633387955.7,286046998.1,N
1633387975.5,286047001.1,N
1633387995.4,286046996.9,N
1633388015.2,286046994.9,N
1633388035.0,286046995.7,N
1633388035.9,286046995.7,N
1633388055.8,286046995.9,N
1633388075.6,286046996.7,N
1633388095.5,286046997.5,N
1633388115.3,286046993.7,N
1633388135.1,286046996.2,N
1633388155.9,286046996.2,N
1633388175.7,286046993.6,N
1633388195.6,286046995.6,N
1633388215.4,286046993.8,N
1633388235.2,286046993.4,N
1633388255.1,286046997.7,N
1633388256.0,286046997.7,N
1633388275.8,286047001.2,N
1633388295.6,286046999.7,N
1633388315.5,286047001.6,N
1633388335.3,286047004.2,N
1633388355.2,286047005.6,N
1633388375.9,286047005.7,N
1633388395.7,286047004.7,N
